Change the Weather History Date:

Sunday, October 14, 2012

  Actual Average Record
Temperature  
Mean Temperature 54 °F -  
Max Temperature 60 °F 62 °F 86 °F (1975)
Min Temperature 48 °F 39 °F 24 °F (2006)
Degree Days  
Heating Degree Days 11    
Growing Degree Days 4 (Base 50)    
Moisture  
Dew Point 38 °F    
Average Humidity 60    
Maximum Humidity 82    
Minimum Humidity 25    
Precipitation  
Precipitation 0.00 in - - ()
Sea Level Pressure  
Sea Level Pressure 29.75 in    
Wind  
Wind Speed 13 mph (NNW)    
Max Wind Speed 22 mph    
Max Gust Speed 30 mph    
Visibility 8 miles    
Events      
Averages and records for this station are not official NWS values.
T = Trace of Precipitation, MM = Missing Value Source: NWS Daily Summary

Daily Weather History Graph

Daily Weather History Graph

Search for Another Location

Airport or City:

Trip Planner

Search our weather history database for the weather conditions in past years. The results will help you decide how hot, cold, wet, or windy it might be!

Date:

Astronomy

Oct. 14, 2012 Rise Set
Actual Time 7:27 AM CDT 6:29 PM CDT
Civil Twilight 6:58 AM CDT 6:59 PM CDT
Nautical Twilight 6:24 AM CDT 7:32 PM CDT
Astronomical Twilight 5:50 AM CDT 8:05 PM CDT
Moon 6:26 AM CDT (10/14) 5:49 PM CDT (10/14)
Length of Visible Light 12h 01m
Length of Day
11h 02m
Waning Crescent, 1% of the Moon is Illuminated
Oct 14
Waning Crescent
Oct 15
New
Oct 21
First Quarter
Oct 29
Full
Nov 6
Last Quarter

Hourly Weather History & Observations

Time (CDT) Temp. Dew Point Humidity Pressure Visibility Wind Dir Wind Speed Gust Speed Precip Events Conditions
12:14 AM 55.4 °F 50.0 °F 82% 29.68 in 1.0 mi North 12.7 mph - N/A   Haze
12:34 AM 55.4 °F 48.2 °F 77% 29.69 in 2.5 mi North 11.5 mph - N/A   Haze
12:54 AM 53.6 °F 48.2 °F 82% 29.69 in 4.0 mi NNE 11.5 mph - N/A   Haze
1:14 AM 53.6 °F 48.2 °F 82% 29.69 in 3.0 mi NNE 10.4 mph - N/A   Haze
1:34 AM 53.6 °F 48.2 °F 82% 29.68 in 5.0 mi NNE 10.4 mph - N/A   Haze
1:54 AM 53.6 °F 48.2 °F 82% 29.67 in 4.0 mi NNE 9.2 mph - N/A   Haze
2:14 AM 53.6 °F 48.2 °F 82% 29.69 in 4.0 mi NNE 9.2 mph - N/A   Haze
2:34 AM 53.6 °F 48.2 °F 82% 29.70 in 3.0 mi NNE 9.2 mph - N/A   Haze
2:54 AM 53.6 °F 46.4 °F 77% 29.70 in 3.0 mi NNE 10.4 mph - N/A   Haze
3:14 AM 51.8 °F 46.4 °F 82% 29.69 in 2.5 mi North 9.2 mph - N/A   Haze
3:34 AM 51.8 °F 46.4 °F 82% 29.69 in 2.5 mi North 10.4 mph - N/A   Haze
3:54 AM 51.8 °F 46.4 °F 82% 29.69 in 5.0 mi North 10.4 mph - N/A   Haze
4:14 AM 51.8 °F 46.4 °F 82% 29.70 in 5.0 mi North 9.2 mph - N/A   Haze
4:34 AM 51.8 °F 46.4 °F 82% 29.69 in 4.0 mi North 13.8 mph - N/A   Haze
4:54 AM 51.8 °F 46.4 °F 82% 29.68 in 5.0 mi North 12.7 mph - N/A   Haze
5:14 AM 51.8 °F 44.6 °F 76% 29.68 in 5.0 mi North 12.7 mph - N/A   Haze
5:33 AM 51.8 °F 44.6 °F 76% 29.68 in 5.0 mi North 13.8 mph - N/A   Haze
5:53 AM 51.8 °F 44.6 °F 76% 29.67 in 5.0 mi North 11.5 mph - N/A   Haze
6:14 AM 51.8 °F 44.6 °F 76% 29.67 in 7.0 mi North 11.5 mph - N/A   Overcast
6:34 AM 51.8 °F 44.6 °F 76% 29.67 in 7.0 mi North 11.5 mph - N/A   Overcast
6:54 AM 51.8 °F 44.6 °F 76% 29.68 in 7.0 mi North 11.5 mph 17.3 mph N/A   Overcast
7:14 AM 51.8 °F 44.6 °F 76% 29.69 in 7.0 mi NNW 10.4 mph - N/A   Overcast
7:33 AM 51.8 °F 44.6 °F 76% 29.69 in 10.0 mi North 11.5 mph - N/A   Overcast
7:54 AM 51.8 °F 42.8 °F 71% 29.69 in 10.0 mi North 12.7 mph 19.6 mph N/A   Overcast
8:14 AM 50.0 °F 42.8 °F 76% 29.70 in 10.0 mi North 15.0 mph 23.0 mph N/A   Overcast
8:34 AM 50.0 °F 42.8 °F 76% 29.71 in 10.0 mi North 15.0 mph 24.2 mph N/A   Overcast
8:54 AM 51.8 °F 42.8 °F 71% 29.71 in 10.0 mi North 17.3 mph 20.7 mph N/A   Overcast
9:14 AM 50.0 °F 42.8 °F 76% 29.71 in 10.0 mi North 18.4 mph - N/A   Overcast
9:34 AM 51.8 °F 42.8 °F 71% 29.71 in 10.0 mi North 18.4 mph - N/A   Overcast
9:54 AM 51.8 °F 42.8 °F 71% 29.71 in 10.0 mi NNW 18.4 mph 25.3 mph N/A   Overcast
10:14 AM 50.0 °F 42.8 °F 76% 29.72 in 7.0 mi NNW 19.6 mph - N/A   Overcast
10:34 AM 50.0 °F 41.0 °F 71% 29.71 in 10.0 mi North 13.8 mph - N/A   Overcast
10:54 AM 51.8 °F 39.2 °F 62% 29.72 in 10.0 mi North 18.4 mph 29.9 mph N/A   Overcast
11:14 AM 50.0 °F 41.0 °F 71% 29.72 in 10.0 mi NNW 18.4 mph 25.3 mph N/A   Overcast
11:33 AM 51.8 °F 41.0 °F 67% 29.73 in 10.0 mi NNW 20.7 mph 25.3 mph N/A   Overcast
11:53 AM 51.8 °F 41.0 °F 67% 29.73 in 10.0 mi NNW 18.4 mph 27.6 mph N/A   Overcast
12:14 PM 53.6 °F 39.2 °F 58% 29.74 in 10.0 mi NNW 19.6 mph 27.6 mph N/A   Scattered Clouds
12:34 PM 55.4 °F 41.0 °F 58% 29.74 in 10.0 mi NNW 17.3 mph - N/A   Scattered Clouds
12:54 PM 55.4 °F 39.2 °F 54% 29.74 in 10.0 mi NNW 19.6 mph 26.5 mph N/A   Scattered Clouds
1:14 PM 55.4 °F 37.4 °F 51% 29.75 in 10.0 mi NNW 19.6 mph 27.6 mph N/A   Scattered Clouds
1:33 PM 55.4 °F 37.4 °F 51% 29.75 in 10.0 mi NNW 18.4 mph 29.9 mph N/A   Mostly Cloudy
1:54 PM 55.4 °F 35.6 °F 47% 29.75 in 10.0 mi NNW 20.7 mph 27.6 mph N/A   Scattered Clouds
2:14 PM 57.2 °F 35.6 °F 44% 29.74 in 10.0 mi NNW 20.7 mph 28.8 mph N/A   Clear
2:34 PM 59.0 °F 33.8 °F 39% 29.74 in 10.0 mi North 21.9 mph 26.5 mph N/A   Clear
2:54 PM 59.0 °F 32.0 °F 36% 29.75 in 10.0 mi NW 20.7 mph 27.6 mph N/A   Clear
3:14 PM 60.8 °F 28.4 °F 29% 29.75 in 10.0 mi NNW 19.6 mph 28.8 mph N/A   Clear
3:34 PM 60.8 °F 28.4 °F 29% 29.75 in 10.0 mi NNW 21.9 mph 26.5 mph N/A   Clear
3:54 PM 60.8 °F 26.6 °F 27% 29.76 in 10.0 mi NNW 17.3 mph 24.2 mph N/A   Clear
4:14 PM 60.8 °F 24.8 °F 25% 29.76 in 10.0 mi NNW 20.7 mph 26.5 mph N/A   Clear
4:34 PM 60.8 °F 26.6 °F 27% 29.77 in 10.0 mi NW 21.9 mph - N/A   Clear
4:54 PM 60.8 °F 24.8 °F 25% 29.78 in 10.0 mi NNW 17.3 mph 21.9 mph N/A   Clear
5:14 PM 60.8 °F 24.8 °F 25% 29.79 in 10.0 mi NNW 18.4 mph 25.3 mph N/A   Clear
5:34 PM 59.0 °F 26.6 °F 29% 29.80 in 10.0 mi NW 16.1 mph - N/A   Clear
5:54 PM 57.2 °F 24.8 °F 29% 29.80 in 10.0 mi NNW 15.0 mph - N/A   Clear
6:14 PM 57.2 °F 26.6 °F 31% 29.82 in 10.0 mi NW 12.7 mph - N/A   Clear
6:33 PM 53.6 °F 26.6 °F 35% 29.82 in 10.0 mi NW 9.2 mph - N/A   Clear
6:53 PM 50.0 °F 28.4 °F 43% 29.82 in 10.0 mi WNW 6.9 mph - N/A   Clear
7:14 PM 50.0 °F 30.2 °F 47% 29.83 in 10.0 mi WNW 8.1 mph - N/A   Scattered Clouds
7:34 PM 50.0 °F 30.2 °F 47% 29.83 in 10.0 mi NW 4.6 mph - N/A   Mostly Cloudy
7:53 PM 51.8 °F 32.0 °F 47% 29.83 in 10.0 mi WNW 4.6 mph - N/A   Unknown
8:13 PM 50.0 °F 32.0 °F 50% 29.84 in 10.0 mi Calm Calm - N/A   Overcast
8:33 PM 51.8 °F 33.8 °F 50% 29.84 in 10.0 mi WNW 5.8 mph - N/A   Unknown
8:54 PM 48.2 °F 33.8 °F 58% 29.85 in 10.0 mi West 6.9 mph - N/A   Unknown
9:14 PM 51.8 °F 33.8 °F 50% 29.86 in 10.0 mi West 5.8 mph - N/A   Overcast
9:34 PM 51.8 °F 33.8 °F 50% 29.86 in 10.0 mi West 5.8 mph - N/A   Overcast
9:54 PM 53.6 °F 33.8 °F 47% 29.86 in 10.0 mi West 6.9 mph - N/A   Overcast
10:14 PM 51.8 °F 33.8 °F 50% 29.87 in 10.0 mi West 6.9 mph - N/A   Unknown
10:33 PM 51.8 °F 35.6 °F 54% 29.87 in 10.0 mi WNW 8.1 mph - N/A   Unknown
10:53 PM 53.6 °F 35.6 °F 51% 29.87 in 10.0 mi WNW 9.2 mph - N/A   Unknown
11:14 PM 53.6 °F 35.6 °F 51% 29.87 in 10.0 mi WNW 10.4 mph - N/A   Unknown
11:34 PM 53.6 °F 35.6 °F 51% 29.87 in 10.0 mi WNW 9.2 mph - N/A   Unknown
11:54 PM 53.6 °F 35.6 °F 51% 29.88 in 10.0 mi WNW 10.4 mph - N/A   Unknown